Location: Brienzwiler
(46.7508°N, 8.1014°E)
Time: 01:41:29
(UTC+00:00)

Cosmos 2219 Rocket - Pass Details

Date: 05 July 2020
Orbit: 827 x 848 km, 71.0° (Epoch: 11 August)

Event Time Altitude Azimuth Distance (km) Brightness Sun altitude
Exits shadow 20:30:26 - 178° (S) 3,021 4.6 -9.3°
Reaches altitude 10° 20:32:06 10° 173° (S) 2,424 4.1 -9.5°
Maximum altitude 20:37:11 38° 107° (ESE) 1,247 2.7 -10.1°
Drops below altitude 10° 20:42:18 10° 41° (NE) 2,448 4.7 -10.7°
Sets 20:44:54 0° 33° (NNE) 3,389 5.6 -11.0°
